This is the latest recevied weather packets stored in our database for station/object IZ3LCH-13. If no packets are shown the sender has not sent any weather packets the latest 1 day(s).
| Time | Temp. | Humidity | Pressure | Rain* | Wind** | Luminosity | Snow |
|---|---|---|---|---|---|---|---|
| 1778021403 | 13.33° C | 86% | 1012 hPa | 0 mm | 2.68 m/s, 2° | - | - |
| 1778021103 | 13.33° C | 86% | 1012.3 hPa | 0 mm | 2.68 m/s, 3° | - | - |
| 1778020803 | 13.89° C | 86% | 1012.3 hPa | 0 mm | 2.68 m/s, 4° | - | - |
| 1778020503 | 13.89° C | 86% | 1012.3 hPa | 0 mm | 2.68 m/s, 4° | - | - |
| 1778020203 | 13.89° C | 85% | 1012.5 hPa | 0 mm | 2.68 m/s, 9° | - | - |
| 1778019903 | 13.89° C | 85% | 1012.2 hPa | 0 mm | 2.68 m/s, 14° | - | - |
| 1778019603 | 13.89° C | 85% | 1012.3 hPa | 0 mm | 2.68 m/s, 12° | - | - |
| 1778019303 | 13.89° C | 85% | 1012.4 hPa | 0 mm | 2.24 m/s, 6° | - | - |
| 1778019003 | 13.89° C | 85% | 1012.4 hPa | 0 mm | 2.24 m/s, 3° | - | - |
| 1778018703 | 13.89° C | 84% | 1012.7 hPa | 0 mm | 2.24 m/s, 5° | - | - |
| 1778018403 | 13.89° C | 84% | 1012.2 hPa | 0 mm | 1.79 m/s, 4° | - | - |
| 1778018103 | 13.89° C | 84% | 1012.6 hPa | 0 mm | 1.79 m/s, 7° | - | - |
| 1778017803 | 13.89° C | 84% | 1012.7 hPa | 0 mm | 1.79 m/s, 6° | - | - |
| 1778017503 | 13.89° C | 84% | 1012.5 hPa | 0 mm | 2.24 m/s, 360° | - | - |
| 1778017203 | 13.89° C | 83% | 1012.5 hPa | 0 mm | 2.24 m/s, 6° | - | - |
| 1778016903 | 13.89° C | 83% | 1012.6 hPa | 0 mm | 2.24 m/s, 9° | - | - |
| 1778016603 | 14.44° C | 83% | 1012.8 hPa | 0 mm | 2.24 m/s, 3° | - | - |
| 1778016303 | 14.44° C | 83% | 1012.7 hPa | 0 mm | 2.24 m/s, 1° | - | - |
| 1778016003 | 14.44° C | 83% | 1012.7 hPa | 0 mm | 2.24 m/s, 360° | - | - |
| 1778015703 | 14.44° C | 83% | 1012.8 hPa | 0 mm | 1.79 m/s, 360° | - | - |
| 1778015403 | 14.44° C | 83% | 1012.9 hPa | 0 mm | 1.34 m/s, 359° | - | - |
| 1778015103 | 14.44° C | 83% | 1013 hPa | 0 mm | 1.79 m/s, 359° | - | - |
| 1778014803 | 14.44° C | 83% | 1013 hPa | 0 mm | 1.79 m/s, 4° | - | - |
| 1778014503 | 14.44° C | 83% | 1013 hPa | 0 mm | 2.24 m/s, 1° | - | - |
| 1778014203 | 14.44° C | 83% | 1012.7 hPa | 0 mm | 2.24 m/s, 2° | - | - |
* Rain latest hour (hover to see other rain measurements)
** Current wind speed in m/s (hover to see current wind gust speed)